DH4SBM Weather Reports


Display with metric or nautical units.
time (UTC)temp
F
wind
direction
speed
MPH
gust
MPH
rain 1hr
in
rain 24hr
in
rain mn
in
humidity
%
barometer
mb
20260508035840 40 0 0.0 0.0 0.00 0.08 0.00 94 1018.3
20260508034840 40 0 0.0 0.0 0.00 0.08 0.00 94 1018.2
20260508033839 40 0 0.0 0.0 0.00 0.08 0.00 94 1018.2
20260508032841 40 0 0.0 0.0 0.00 0.08 0.00 94 1018.2
20260508031840 41 0 0.0 0.0 0.00 0.08 0.00 94 1018.2
20260508030839 41 0 0.0 0.0 0.00 0.08 0.00 94 1018.1
20260508025840 41 0 0.0 0.0 0.00 0.09 0.00 94 1018.0
20260508024840 41 0 0.0 0.0 0.00 0.09 0.00 93 1017.9
20260508023839 42 0 0.0 0.0 0.00 0.09 0.00 94 1018.0
20260508022840 42 0 0.0 0.0 0.00 0.09 0.00 93 1018.0
20260508021840 42 0 0.0 0.0 0.00 0.09 0.00 94 1018.1
20260508020839 42 0 0.0 0.0 0.00 0.09 0.00 94 1018.0
20260508015840 42 0 0.0 0.0 0.00 0.10 0.00 94 1017.9
20260508014840 42 0 0.0 0.0 0.00 0.10 0.00 94 1017.9
20260508013839 42 0 0.0 0.0 0.00 0.10 0.00 93 1018.0
20260508012840 42 0 0.0 0.0 0.00 0.10 0.00 93 1018.1
20260508011840 42 0 0.0 0.0 0.00 0.10 0.00 93 1018.0
20260508010839 43 45 2.0 5.0 0.00 0.10 0.00 93 1018.0
20260508005840 43 45 2.0 4.0 0.00 0.14 0.00 93 1018.1
20260508004840 43 45 2.0 4.0 0.00 0.14 0.00 93 1018.2
20260508003839 43 45 2.0 4.0 0.00 0.14 0.00 93 1018.3
20260508002840 43 45 2.0 4.0 0.00 0.14 0.00 93 1018.3
20260508001840 43 45 2.0 4.0 0.00 0.14 0.00 92 1018.3
20260508000839 44 45 3.0 5.0 0.00 0.14 0.00 92 1018.3
20260507235841 44 68 3.0 5.0 0.00 0.14 0.00 92 1018.5
20260507234840 44 68 2.0 4.0 0.00 0.14 0.00 92 1018.4
20260507233839 44 68 3.0 5.0 0.00 0.14 0.00 92 1018.4
20260507232841 44 90 1.0 5.0 0.00 0.14 0.00 92 1018.4
20260507231840 44 112 0.0 2.0 0.00 0.14 0.00 92 1018.5
20260507230839 45 112 1.0 4.0 0.00 0.14 0.00 91 1018.6
20260507225841 45 45 1.0 3.0 0.00 0.14 0.00 91 1018.6
20260507224840 45 45 2.0 5.0 0.00 0.14 0.00 90 1018.6
20260507223839 45 0 0.0 0.0 0.00 0.14 0.00 90 1018.4
20260507222841 46 0 0.0 0.0 0.00 0.14 0.00 90 1018.5
20260507221840 46 0 0.0 0.0 0.00 0.14 0.00 89 1018.7
20260507220839 46 0 0.0 0.0 0.00 0.14 0.00 90 1018.6
20260507215841 46 90 0.0 1.0 0.00 0.15 0.15 89 1018.6
20260507214840 47 90 0.0 1.0 0.00 0.15 0.15 89 1018.6
20260507213839 47 90 1.0 3.0 0.00 0.15 0.15 89 1018.6
20260507212841 47 90 1.0 3.0 0.00 0.15 0.15 89 1018.5
20260507211840 47 68 2.0 4.0 0.00 0.15 0.15 88 1018.4
20260507210839 48 90 1.0 4.0 0.00 0.15 0.15 87 1018.4
20260507205839 48 180 1.0 2.0 0.00 0.16 0.15 87 1018.5
20260507204840 48 180 0.0 2.0 0.00 0.16 0.15 85 1018.5
20260507203839 49 180 0.0 2.0 0.00 0.16 0.15 85 1018.5
20260507202841 49 0 0.0 0.0 0.00 0.16 0.15 85 1018.3
20260507201840 49 180 1.0 3.0 0.00 0.16 0.15 84 1018.2
20260507200839 50 180 2.0 5.0 0.00 0.16 0.15 83 1018.2
20260507195841 50 158 1.0 4.0 0.00 0.19 0.15 82 1018.0
20260507194841 51 45 0.0 1.0 0.00 0.19 0.15 82 1017.8
20260507193841 51 45 1.0 2.0 0.00 0.19 0.15 82 1017.8
20260507192840 52 0 0.0 0.0 0.00 0.19 0.15 81 1017.8
20260507191840 52 0 0.0 0.0 0.00 0.19 0.15 81 1017.7
20260507190840 53 0 0.0 0.0 0.00 0.19 0.15 80 1017.5
20260507185840 53 0 0.0 0.0 0.00 0.26 0.15 79 1017.5
20260507184840 54 45 1.0 2.0 0.00 0.26 0.15 79 1017.3
20260507183840 54 45 2.0 4.0 0.00 0.26 0.15 79 1017.3
20260507182840 54 45 2.0 5.0 0.00 0.26 0.15 78 1017.3
20260507181840 55 22 3.0 5.0 0.00 0.26 0.15 78 1017.1
20260507180840 55 45 2.0 5.0 0.00 0.26 0.15 78 1016.9
20260507175840 54 22 4.0 7.0 0.00 0.28 0.15 78 1017.0
20260507174840 54 360 4.0 8.0 0.00 0.28 0.15 79 1017.1
20260507173840 54 22 4.0 8.0 0.00 0.28 0.15 79 1016.9
20260507172840 54 360 5.0 9.0 0.00 0.28 0.15 79 1016.9
20260507171840 54 360 5.0 9.0 0.00 0.28 0.15 78 1016.7
20260507170840 55 22 4.0 8.0 0.00 0.28 0.15 78 1016.7
20260507165840 55 338 4.0 8.0 0.00 0.29 0.15 76 1016.7
20260507164840 55 338 3.0 7.0 0.00 0.29 0.15 76 1016.8
20260507163840 56 338 4.0 8.0 0.00 0.29 0.15 74 1016.9
20260507162840 56 315 5.0 8.0 0.00 0.29 0.15 73 1016.7
20260507161840 56 338 5.0 11.0 0.00 0.29 0.15 75 1016.7
20260507160840 56 338 6.0 11.0 0.00 0.29 0.15 74 1016.6
20260507155840 56 338 5.0 9.0 0.00 0.29 0.15 77 1016.8
20260507154840 56 338 5.0 9.0 0.00 0.29 0.15 76 1016.8
20260507153840 56 315 4.0 10.0 0.01 0.29 0.15 73 1016.8
20260507153141 57 338 5.0 9.0 0.01 0.29 0.15 74 1016.8
20260507152839 57 338 5.0 9.0 0.01 0.29 0.15 74 1016.8
20260507152513 56 292 5.0 10.0 0.01 0.29 0.15 73 1016.6
20260507151839 56 292 5.0 10.0 0.01 0.29 0.15 73 1016.6
20260507150840 56 315 6.0 10.0 0.01 0.29 0.15 74 1016.8
20260507145840 56 292 5.0 10.0 0.01 0.29 0.15 74 1016.8
20260507144840 56 338 4.0 7.0 0.01 0.29 0.15 75 1016.7
20260507143840 56 338 4.0 9.0 0.00 0.28 0.14 76 1016.7
20260507142840 55 338 6.0 10.0 0.00 0.28 0.14 77 1016.7
20260507141840 55 338 6.0 9.0 0.00 0.28 0.14 77 1016.8
20260507140840 54 338 6.0 11.0 0.00 0.28 0.14 77 1016.8
20260507135840 54 315 7.0 12.0 0.00 0.28 0.14 77 1016.9
20260507134840 55 315 6.0 11.0 0.00 0.28 0.14 76 1016.9
20260507133840 55 315 4.0 11.0 0.00 0.28 0.14 77 1016.8
20260507132840 54 338 4.0 8.0 0.00 0.28 0.14 79 1016.8
20260507131840 53 315 3.0 7.0 0.00 0.28 0.14 81 1016.7
20260507130840 53 292 4.0 8.0 0.00 0.28 0.14 81 1016.6
20260507125840 53 292 4.0 9.0 0.00 0.28 0.14 81 1016.7
20260507124840 53 292 3.0 9.0 0.00 0.28 0.14 82 1016.8
20260507123840 53 315 4.0 10.0 0.00 0.28 0.14 82 1016.7
20260507122840 52 315 3.0 8.0 0.00 0.28 0.14 83 1016.6
20260507121840 52 338 4.0 6.0 0.00 0.28 0.14 83 1016.4
20260507120840 52 315 4.0 9.0 0.00 0.28 0.14 83 1016.5
20260507115840 52 292 6.0 12.0 0.00 0.28 0.14 81 1016.4
20260507114840 53 338 5.0 11.0 0.00 0.28 0.14 81 1016.4
20260507113840 53 315 6.0 11.0 0.00 0.28 0.14 81 1016.3
20260507112840 53 315 5.0 10.0 0.00 0.28 0.14 81 1016.3
20260507111838 53 315 6.0 11.0 0.00 0.28 0.14 79 1016.3
20260507110838 53 292 6.0 11.0 0.00 0.28 0.14 80 1016.2
20260507105838 54 315 6.0 11.0 0.00 0.28 0.14 79 1016.2
20260507104838 54 315 6.0 12.0 0.00 0.28 0.14 79 1016.3
20260507103838 54 270 7.0 14.0 0.00 0.28 0.14 81 1016.4
20260507102838 53 270 4.0 9.0 0.00 0.28 0.14 82 1016.4
20260507101838 52 270 8.0 12.0 0.00 0.28 0.14 82 1016.3
20260507100838 52 270 7.0 14.0 0.00 0.28 0.14 83 1016.3
20260507095043 51 248 9.0 14.0 0.00 0.28 0.14 89 1016.1
20260507094042 51 248 7.0 14.0 0.00 0.28 0.14 91 1016.0
20260507093541 51 248 7.0 14.0 0.00 0.28 0.14 91 1016.0
20260507091542 49 270 5.0 9.0 0.00 0.28 0.14 94 1015.6
20260507090542 49 270 5.0 9.0 0.00 0.28 0.14 94 1015.6